KAZEOSAT 1
Last updated on Mon Jun 22 2026 00:02:51 GMT+0000 (Coordinated Universal Time)
1 39731U 14024A 26172.53169137 .00000393 00000+0 13252-3 0 9997
2 39731 98.3200 244.8715 0001291 77.1135 283.0199 14.42082456639180
Next 0 passes for location: London (51.5072 / 0.1276)
No passes found over London.